Regional Weather Roundup
Issued by NWS Sioux Falls, SD

Home | Current Version | Previous Version | Text Only | Print | Product List | Glossary Off
Versions: 1 2 3 4 5 6 7 8 9 10 11 12 13 14 15 16 17 18 19 20 21 22 23 24 25 26 27 28 29 30 31 32 33 34 35 36 37 38 39 40 41 42 43 44 45 46 47 48 49 50

000
ASUS43 KFSD 301302
RWRFSD

WEATHER ROUNDUP FOR SE SOUTH DAKOTA/SW MINNESOTA/NW IOWA
NATIONAL WEATHER SERVICE SIOUX FALLS SD
800 AM CDT TUE SEP 30 2014

NOTE: "FAIR" INDICATES FEW OR NO CLOUDS BELOW 12,000 FEET WITH NO
SIGNIFICANT WEATHER AND OR OBSTRUCTIONS TO VISIBILITY.


SDZ038>040-050-052>070-301400-
SOUTHEAST SOUTH DAKOTA

CITY           SKY/WX    TMP DP  RH WIND       PRES   REMARKS
CHAMBERLAIN    CLOUDY    58  57  96 SE21G32   29.65F FOG
HURON          CLOUDY    56  50  80 SE14G23   29.75F
MADISON        CLOUDY    50  50 100 SE13G20   29.85F
MITCHELL       CLOUDY    56  52  86 SE16G25   29.76F
SIOUX FALLS    CLOUDY    53  50  89 SE14      29.86F
WINNER         FAIR      63  58  83 SE21      29.60F
YANKTON        CLOUDY    57  54  88 E13G20    29.81S
$$

MNZ071-072-080-081-089-090-097-098-301400-
SOUTHWEST MINNESOTA

CITY           SKY/WX    TMP DP  RH WIND       PRES   REMARKS
FAIRMONT       CLOUDY    48  43  81 E13       29.98F
JACKSON        CLOUDY    48  45  87 E10       29.98S
LUVERNE        CLOUDY    54  50  87 E12       29.90F
MARSHALL       CLOUDY    46  39  76 SE20      29.94S
MONTEVIDEO     CLOUDY    45  43  93 SE15G23   29.98F
PIPESTONE      CLOUDY    50  46  87 SE14G20   29.89F
REDWOOD FALLS  CLOUDY    44  42  93 E12       29.99F
TRACY          CLOUDY    47  45  93 E13       29.96S
WINDOM         CLOUDY    46  45  93 E12G17    29.98S
WORTHINGTON    CLOUDY    48  46  93 E13       29.95S
$$

IAZ001>003-012>014-020>022-031-032-NEZ013-014-SDZ071-301400-
NORTHWEST IOWA

CITY           SKY/WX    TMP DP  RH WIND       PRES   REMARKS
CHEROKEE       CLOUDY    54  54 100 SE10      29.92S
DENISON        CLOUDY    57  57 100 E10       29.90F FOG
ESTHERVILLE    CLOUDY    49  49 100 SE12      29.98S FOG
LE MARS        CLOUDY    55  54  94 SE8G15    29.89S
ORANGE CITY    CLOUDY    55  52  88 E12G17    29.89S
SHELDON        CLOUDY    52  52 100 SE15G23   29.90F
SIOUX CITY     CLOUDY    59  56  89 SE10      29.87S
SPENCER        CLOUDY    51  49  92 E14       29.95S
STORM LAKE     FOG       52  52 100 SE14G21   29.94F VSB<1/4
$$

ABBREVIATIONS USED IN REMARKS
   TC - TEMPERATURE IN CELSIUS
  WCI - WIND CHILL INDEX
   HX - HEAT INDEX
  VSB - VISIBILITY




USA.gov is the U.S. government's official web portal to all federal, state and local government web resources and services.